マティチッチ彗星

C/2008 Q1 ( Maticic )

English version
Home page
Updated on October 3, 2010

---------------------------------------------------------------------

・ プロフィール

発見日 2008年8月18日
発見光度 17.8等
発見者 Stanislav Maticic (Crni Vrh Observatory)

・ 写真集

・ 軌道要素

The following orbital elements are taken from MPC 65935:

Epoch 2009 Jan. 9.0 TT = JDT 2454840.5
T 2008 Dec. 30.1323 TT                                  MPC
q   2.959145             (2000.0)            P               Q
z  +0.001683       Peri.  104.4805      -0.1717319      -0.9748609
 +/-0.000001       Node     9.3077      -0.7951642      +0.0520955
e   0.995019       Incl.  118.6266      +0.5815687      -0.2166386
From 741 observations 2008 Aug. 18-2009 May 4, mean residual 0".5.

・ 光度変化

        m1 = 10.5 + 5 logΔ + 7.5 log r(t - 100)

---------------------------------------------------------------------

軌道要素はMPCのEphemerides and Orbital Elementsに掲載されたものです。
光度グラフはComet for Windowsで作成したものです。

---------------------------------------------------------------------

Copyright(C) Seiichi Yoshida (comet@aerith.net). All rights reserved.